Location: Châteauvieux
(47.2310°N, 1.3828°E)
Time: 03:22:55
(UTC+00:00)

CZ-4B R/B - Pass Details

Date: 15 May 2026
Orbit: 807 x 881 km, 98.9° (Epoch: 8 June)

Event Time Altitude Azimuth Distance (km) Brightness Sun altitude
Exits shadow 20:05:20 - 161° (SSE) 3,253 5.7 -6.7°
Reaches altitude 10° 20:07:11 10° 161° (SSE) 2,529 5.2 -6.9°
Maximum altitude 20:12:50 84° 74° (ENE) 885 3.3 -7.7°
Drops below altitude 10° 20:18:27 10° 347° (NNW) 2,517 6.6 -8.4°
Sets 20:20:49 0° 346° (NNW) 3,448 7.4 -8.7°
